Time,TemperatureF,DewpointF,PressureIn,WindDirection,WindDirectionDegrees,WindSpeedMPH,WindSpeedGustMPH,Humidity,HourlyPrecipIn,Conditions,Clouds,dailyrainin,SoftwareType,DateUTC
2013-02-27 00:00:00,64.8,62.4,29.85,SSE,155,0.0,3.0,92,0.00,,OVC024,0.02,VWS V14.01,2013-02-27 05:00:00,
2013-02-27 00:01:00,64.9,62.5,29.85,South,191,1.0,3.0,92,0.00,,OVC022,0.02,VWS V14.01,2013-02-27 05:01:00,
2013-02-27 00:06:00,65.1,62.7,29.85,WNW,297,1.0,1.0,92,0.00,,OVC022,0.00,VWS V14.01,2013-02-27 05:06:00,
2013-02-27 00:11:00,65.3,62.9,29.85,West,264,1.0,4.0,92,0.00,,OVC022,0.00,VWS V14.01,2013-02-27 05:11:00,
2013-02-27 00:16:00,65.4,63.0,29.85,SSE,154,0.0,4.0,92,0.00,,OVC022,0.00,VWS V14.01,2013-02-27 05:16:00,
2013-02-27 00:21:00,65.4,63.0,29.85,WNW,283,0.0,4.0,92,0.00,,OVC022,0.00,VWS V14.01,2013-02-27 05:21:00,
2013-02-27 00:26:00,65.3,62.9,29.85,WNW,283,0.0,4.0,92,0.00,,OVC022,0.00,VWS V14.01,2013-02-27 05:26:00,
2013-02-27 00:32:00,65.2,62.8,29.86,WSW,246,1.0,4.0,92,0.00,,OVC022,0.00,VWS V14.01,2013-02-27 05:32:00,
2013-02-27 00:37:00,65.2,62.8,29.86,West,277,1.0,3.0,92,0.00,,OVC022,0.00,VWS V14.01,2013-02-27 05:37:00,
2013-02-27 00:42:00,65.1,62.7,29.86,SW,226,0.0,3.0,92,0.00,,OVC022,0.00,VWS V14.01,2013-02-27 05:42:00,
2013-02-27 00:47:00,65.0,62.6,29.87,SE,139,0.0,3.0,92,0.00,,SCT020,0.00,VWS V14.01,2013-02-27 05:47:00,
2013-02-27 00:52:00,64.9,62.5,29.86,SSE,163,0.0,3.0,92,0.00,,SCT020,0.00,VWS V14.01,2013-02-27 05:52:00,
2013-02-27 00:57:00,64.7,62.6,29.86,ESE,122,0.0,3.0,93,0.00,,SCT020,0.00,VWS V14.01,2013-02-27 05:57:00,
2013-02-27 01:02:00,64.6,62.5,29.86,West,271,0.0,3.0,93,0.00,,BKN022,0.00,VWS V14.01,2013-02-27 06:02:00,
2013-02-27 01:07:00,64.5,62.4,29.86,West,271,0.0,1.0,93,0.00,,BKN022,0.00,VWS V14.01,2013-02-27 06:07:00,
2013-02-27 01:13:00,64.4,62.3,29.87,West,274,3.0,3.0,93,0.00,,BKN022,0.00,VWS V14.01,2013-02-27 06:13:00,
2013-02-27 01:18:00,64.5,62.4,29.87,NNE,32,0.0,3.0,93,0.00,,FEW011,0.00,VWS V14.01,2013-02-27 06:18:00,
2013-02-27 01:23:00,64.4,62.6,29.87,WNW,287,0.0,3.0,94,0.00,,FEW011,0.00,VWS V14.01,2013-02-27 06:23:00,
2013-02-27 01:28:00,64.3,62.5,29.87,West,281,0.0,3.0,94,0.00,,FEW011,0.00,VWS V14.01,2013-02-27 06:28:00,
2013-02-27 01:33:00,64.3,62.5,29.87,West,278,0.0,3.0,94,0.00,,FEW011,0.00,VWS V14.01,2013-02-27 06:33:00,
2013-02-27 01:38:00,64.4,62.6,29.87,West,281,0.0,2.0,94,0.00,,FEW011,0.00,VWS V14.01,2013-02-27 06:38:00,
2013-02-27 01:43:00,64.4,62.6,29.87,WNW,294,0.0,3.0,94,0.00,,FEW011,0.00,VWS V14.01,2013-02-27 06:43:00,
2013-02-27 01:48:00,64.4,62.6,29.86,West,277,0.0,3.0,94,0.00,,FEW011,0.00,VWS V14.01,2013-02-27 06:48:00,
2013-02-27 01:53:00,64.3,62.5,29.86,East,79,0.0,3.0,94,0.00,,FEW011,0.00,VWS V14.01,2013-02-27 06:53:00,
2013-02-27 01:59:00,64.3,62.5,29.86,WNW,290,0.0,3.0,94,0.00,,FEW011,0.00,VWS V14.01,2013-02-27 06:59:00,
2013-02-27 02:04:00,64.2,62.4,29.86,SSW,208,0.0,3.0,94,0.00,,CLR,0.00,VWS V14.01,2013-02-27 07:04:00,
2013-02-27 02:09:00,64.2,62.4,29.86,West,277,1.0,3.0,94,0.00,,CLR,0.00,VWS V14.01,2013-02-27 07:09:00,
2013-02-27 02:14:00,64.2,62.4,29.86,West,277,0.0,3.0,94,0.00,,CLR,0.00,VWS V14.01,2013-02-27 07:14:00,
2013-02-27 02:19:00,64.1,62.3,29.86,SSE,162,0.0,3.0,94,0.00,,CLR,0.00,VWS V14.01,2013-02-27 07:19:00,
2013-02-27 02:24:00,64.1,62.3,29.86,West,281,0.0,3.0,94,0.00,,CLR,0.00,VWS V14.01,2013-02-27 07:24:00,
2013-02-27 02:29:00,64.0,62.2,29.86,WSW,238,0.0,3.0,94,0.00,,CLR,0.00,VWS V14.01,2013-02-27 07:29:00,
2013-02-27 02:34:00,64.0,62.2,29.86,SSE,150,1.0,1.0,94,0.00,,CLR,0.00,VWS V14.01,2013-02-27 07:34:00,
2013-02-27 02:39:00,63.9,62.1,29.86,SW,218,0.0,1.0,94,0.00,,CLR,0.00,VWS V14.01,2013-02-27 07:39:00,
2013-02-27 02:44:00,63.9,62.1,29.86,West,280,0.0,1.0,94,0.00,,CLR,0.00,VWS V14.01,2013-02-27 07:44:00,
2013-02-27 02:50:00,64.0,62.2,29.86,West,277,0.0,3.0,94,0.00,,CLR,0.00,VWS V14.01,2013-02-27 07:50:00,
2013-02-27 02:55:00,64.0,61.9,29.85,West,276,0.0,3.0,93,0.00,,CLR,0.00,VWS V14.01,2013-02-27 07:55:00,
2013-02-27 03:00:00,64.0,61.9,29.86,WSW,246,0.0,3.0,93,0.00,,CLR,0.00,VWS V14.01,2013-02-27 08:00:00,
2013-02-27 03:05:00,64.1,62.0,29.85,West,281,0.0,0.0,93,0.00,,CLR,0.00,VWS V14.01,2013-02-27 08:05:00,
2013-02-27 03:10:00,64.2,61.8,29.85,West,277,1.0,1.0,92,0.00,,CLR,0.00,VWS V14.01,2013-02-27 08:10:00,
2013-02-27 03:15:00,64.1,62.0,29.86,East,93,1.0,2.0,93,0.00,,CLR,0.00,VWS V14.01,2013-02-27 08:15:00,
2013-02-27 03:20:00,64.1,62.0,29.85,West,265,0.0,3.0,93,0.00,,CLR,0.00,VWS V14.01,2013-02-27 08:20:00,
2013-02-27 03:25:00,64.1,62.0,29.86,West,263,2.0,3.0,93,0.00,,CLR,0.00,VWS V14.01,2013-02-27 08:25:00,
2013-02-27 03:30:00,64.0,61.9,29.86,West,280,0.0,3.0,93,0.00,,CLR,0.00,VWS V14.01,2013-02-27 08:30:00,
2013-02-27 03:35:00,63.9,61.8,29.85,West,281,0.0,0.0,93,0.00,,CLR,0.00,VWS V14.01,2013-02-27 08:35:00,
2013-02-27 03:40:00,63.9,61.8,29.85,WNW,297,0.0,2.0,93,0.00,,CLR,0.00,VWS V14.01,2013-02-27 08:40:00,
2013-02-27 03:45:00,63.8,61.7,29.85,East,96,1.0,2.0,93,0.00,,CLR,0.00,VWS V14.01,2013-02-27 08:45:00,
2013-02-27 03:51:00,63.7,61.6,29.85,WNW,285,0.0,2.0,93,0.00,,CLR,0.00,VWS V14.01,2013-02-27 08:51:00,
2013-02-27 03:56:00,63.7,61.6,29.86,WNW,283,0.0,2.0,93,0.00,,CLR,0.00,VWS V14.01,2013-02-27 08:56:00,
2013-02-27 04:01:00,63.5,61.4,29.86,WNW,283,2.0,2.0,93,0.00,,CLR,0.00,VWS V14.01,2013-02-27 09:01:00,
2013-02-27 04:06:00,63.4,61.3,29.86,West,276,0.0,0.0,93,0.00,,CLR,0.00,VWS V14.01,2013-02-27 09:06:00,
2013-02-27 04:11:00,63.3,61.2,29.86,WSW,256,0.0,1.0,93,0.00,,CLR,0.00,VWS V14.01,2013-02-27 09:11:00,
2013-02-27 04:16:00,63.1,61.3,29.86,West,276,0.0,1.0,94,0.00,,CLR,0.00,VWS V14.01,2013-02-27 09:16:00,
2013-02-27 04:21:00,63.0,61.2,29.87,West,269,0.0,1.0,94,0.00,,CLR,0.00,VWS V14.01,2013-02-27 09:21:00,
2013-02-27 04:27:00,63.0,61.2,29.87,West,274,0.0,2.0,94,0.00,,CLR,0.00,VWS V14.01,2013-02-27 09:27:00,
2013-02-27 04:32:00,62.9,61.2,29.87,West,277,0.0,2.0,94,0.00,,CLR,0.00,VWS V14.01,2013-02-27 09:32:00,
2013-02-27 04:37:00,62.8,61.0,29.88,West,278,0.0,1.0,94,0.00,,CLR,0.00,VWS V14.01,2013-02-27 09:37:00,
2013-02-27 04:42:00,62.8,61.0,29.87,West,268,0.0,2.0,94,0.00,,CLR,0.00,VWS V14.01,2013-02-27 09:42:00,
2013-02-27 04:47:00,62.7,61.0,29.87,West,274,0.0,2.0,94,0.00,,CLR,0.00,VWS V14.01,2013-02-27 09:47:00,
2013-02-27 04:52:00,62.6,60.8,29.87,West,274,0.0,2.0,94,0.00,,CLR,0.00,VWS V14.01,2013-02-27 09:52:00,
2013-02-27 04:57:00,62.5,60.8,29.87,West,274,0.0,2.0,94,0.00,,CLR,0.00,VWS V14.01,2013-02-27 09:57:00,
2013-02-27 05:02:00,62.4,61.0,29.87,West,274,0.0,2.0,95,0.00,,FEW020,0.00,VWS V14.01,2013-02-27 10:02:00,
2013-02-27 05:08:00,62.4,61.0,29.87,West,274,0.0,0.0,95,0.00,,FEW020,0.00,VWS V14.01,2013-02-27 10:08:00,
2013-02-27 05:13:00,62.4,61.0,29.87,WSW,249,0.0,1.0,95,0.00,,FEW020,0.00,VWS V14.01,2013-02-27 10:13:00,
2013-02-27 05:18:00,62.4,60.7,29.87,West,280,0.0,1.0,94,0.00,,FEW020,0.00,VWS V14.01,2013-02-27 10:18:00,
2013-02-27 05:23:00,62.4,60.7,29.87,West,277,0.0,1.0,94,0.00,,FEW020,0.00,VWS V14.01,2013-02-27 10:23:00,
2013-02-27 05:28:00,62.3,60.6,29.88,West,277,0.0,1.0,94,0.00,,FEW020,0.00,VWS V14.01,2013-02-27 10:28:00,
2013-02-27 05:33:00,62.2,60.5,29.88,West,277,0.0,1.0,94,0.00,,FEW020,0.00,VWS V14.01,2013-02-27 10:33:00,
2013-02-27 05:38:00,62.1,60.4,29.88,West,277,0.0,1.0,94,0.00,,FEW020,0.00,VWS V14.01,2013-02-27 10:38:00,
2013-02-27 05:43:00,62.0,60.3,29.88,West,259,0.0,1.0,94,0.00,,FEW020,0.00,VWS V14.01,2013-02-27 10:43:00,
2013-02-27 05:48:00,61.9,60.2,29.88,West,266,0.0,1.0,94,0.00,,FEW020,0.00,VWS V14.01,2013-02-27 10:48:00,
2013-02-27 05:53:00,61.9,60.2,29.88,ENE,62,0.0,1.0,94,0.00,,FEW020,0.00,VWS V14.01,2013-02-27 10:53:00,
2013-02-27 05:58:00,61.8,60.1,29.88,ENE,61,0.0,1.0,94,0.00,,FEW020,0.00,VWS V14.01,2013-02-27 10:58:00,
2013-02-27 06:04:00,61.6,59.9,29.88,ENE,61,0.0,1.0,94,0.00,,CLR,0.00,VWS V14.01,2013-02-27 11:04:00,
2013-02-27 06:09:00,61.6,59.6,29.88,ENE,65,0.0,1.0,93,0.00,,CLR,0.00,VWS V14.01,2013-02-27 11:09:00,
2013-02-27 06:14:00,61.6,59.3,29.88,NW,315,0.0,2.0,92,0.00,,CLR,0.00,VWS V14.01,2013-02-27 11:14:00,
2013-02-27 06:19:00,61.7,59.0,29.88,West,277,0.0,2.0,91,0.00,,CLR,0.00,VWS V14.01,2013-02-27 11:19:00,
2013-02-27 06:24:00,61.7,59.0,29.88,SE,134,0.0,2.0,91,0.00,,CLR,0.00,VWS V14.01,2013-02-27 11:24:00,
2013-02-27 06:29:00,61.6,58.6,29.88,WNW,285,0.0,4.0,90,0.00,,CLR,0.00,VWS V14.01,2013-02-27 11:29:00,
2013-02-27 06:34:00,61.5,58.5,29.89,West,271,0.0,1.0,90,0.00,,CLR,0.00,VWS V14.01,2013-02-27 11:34:00,
2013-02-27 06:40:00,61.5,58.5,29.89,West,263,0.0,2.0,90,0.00,,CLR,0.00,VWS V14.01,2013-02-27 11:40:00,
2013-02-27 06:45:00,61.5,58.2,29.89,West,278,0.0,2.0,89,0.00,,CLR,0.00,VWS V14.01,2013-02-27 11:45:00,
2013-02-27 06:50:00,61.4,58.5,29.89,West,277,0.0,2.0,90,0.00,,CLR,0.00,VWS V14.01,2013-02-27 11:50:00,
2013-02-27 06:55:00,61.3,58.3,29.89,West,277,0.0,2.0,90,0.00,,CLR,0.00,VWS V14.01,2013-02-27 11:55:00,
2013-02-27 07:00:00,61.2,58.2,29.90,West,267,0.0,2.0,90,0.00,,CLR,0.00,VWS V14.01,2013-02-27 12:00:00,
2013-02-27 07:05:00,61.1,58.2,29.90,West,267,0.0,0.0,90,0.00,,CLR,0.00,VWS V14.01,2013-02-27 12:05:00,
2013-02-27 07:10:00,61.1,58.2,29.90,West,273,0.0,1.0,90,0.00,,CLR,0.00,VWS V14.01,2013-02-27 12:10:00,
2013-02-27 07:15:00,61.2,58.2,29.90,West,262,0.0,2.0,90,0.00,,CLR,0.00,VWS V14.01,2013-02-27 12:15:00,
2013-02-27 07:20:00,61.2,58.2,29.90,West,261,0.0,2.0,90,0.00,,CLR,0.00,VWS V14.01,2013-02-27 12:20:00,
2013-02-27 07:26:00,61.3,58.3,29.90,ENE,68,0.0,2.0,90,0.00,,CLR,0.00,VWS V14.01,2013-02-27 12:26:00,
2013-02-27 07:31:00,61.4,58.1,29.90,East,81,2.0,2.0,89,0.00,,CLR,0.00,VWS V14.01,2013-02-27 12:31:00,
2013-02-27 07:36:00,61.8,58.2,29.90,WNW,283,0.0,2.0,88,0.00,,CLR,0.00,VWS V14.01,2013-02-27 12:36:00,
2013-02-27 07:41:00,62.1,58.2,29.90,SW,228,1.0,2.0,87,0.00,,CLR,0.00,VWS V14.01,2013-02-27 12:41:00,
2013-02-27 07:46:00,62.4,58.2,29.90,NE,38,2.0,2.0,86,0.00,,CLR,0.00,VWS V14.01,2013-02-27 12:46:00,
2013-02-27 07:51:00,62.6,58.4,29.91,WNW,285,0.0,2.0,86,0.00,,CLR,0.00,VWS V14.01,2013-02-27 12:51:00,
2013-02-27 07:56:00,62.8,58.6,29.92,East,82,0.0,2.0,86,0.00,,CLR,0.00,VWS V14.01,2013-02-27 12:56:00,
2013-02-27 08:02:00,62.9,58.7,29.92,East,94,0.0,2.0,86,0.00,,CLR,0.00,VWS V14.01,2013-02-27 13:02:00,
2013-02-27 08:07:00,63.0,58.8,29.92,West,281,0.0,1.0,86,0.00,,CLR,0.00,VWS V14.01,2013-02-27 13:07:00,
2013-02-27 08:12:00,63.1,58.8,29.92,ENE,58,0.0,3.0,86,0.00,,CLR,0.00,VWS V14.01,2013-02-27 13:12:00,
2013-02-27 08:17:00,63.1,58.8,29.92,WSW,256,0.0,3.0,86,0.00,,CLR,0.00,VWS V14.01,2013-02-27 13:17:00,
2013-02-27 08:22:00,63.2,59.0,29.93,WNW,283,0.0,3.0,86,0.00,,CLR,0.00,VWS V14.01,2013-02-27 13:22:00,
2013-02-27 08:27:00,63.4,58.8,29.92,WNW,283,0.0,3.0,85,0.00,,CLR,0.00,VWS V14.01,2013-02-27 13:27:00,
2013-02-27 08:32:00,63.5,58.9,29.92,NNW,345,1.0,3.0,85,0.00,,CLR,0.00,VWS V14.01,2013-02-27 13:32:00,
2013-02-27 08:38:00,63.7,58.8,29.93,NE,46,0.0,1.0,84,0.00,,CLR,0.00,VWS V14.01,2013-02-27 13:38:00,
2013-02-27 08:43:00,63.6,58.7,29.93,ESE,102,1.0,3.0,84,0.00,,CLR,0.00,VWS V14.01,2013-02-27 13:43:00,
2013-02-27 08:48:00,63.7,58.5,29.93,ENE,73,0.0,3.0,83,0.00,,CLR,0.00,VWS V14.01,2013-02-27 13:48:00,
2013-02-27 08:53:00,63.9,58.6,29.94,SE,144,0.0,3.0,83,0.00,,CLR,0.00,VWS V14.01,2013-02-27 13:53:00,
2013-02-27 08:58:00,64.0,58.4,29.94,SE,131,0.0,3.0,82,0.00,,CLR,0.00,VWS V14.01,2013-02-27 13:58:00,
2013-02-27 09:03:00,63.9,58.0,29.94,WNW,302,0.0,3.0,81,0.00,,CLR,0.00,VWS V14.01,2013-02-27 14:03:00,
2013-02-27 09:08:00,64.3,58.7,29.94,NW,311,0.0,1.0,82,0.00,,CLR,0.00,VWS V14.01,2013-02-27 14:08:00,
2013-02-27 09:13:00,64.5,58.5,29.95,SW,229,0.0,1.0,81,0.00,,CLR,0.00,VWS V14.01,2013-02-27 14:13:00,
2013-02-27 09:18:00,64.5,58.5,29.95,ESE,103,0.0,2.0,81,0.00,,BKN021,0.00,VWS V14.01,2013-02-27 14:18:00,
2013-02-27 09:23:00,64.3,58.0,29.94,East,88,0.0,3.0,80,0.00,,BKN021,0.00,VWS V14.01,2013-02-27 14:23:00,
2013-02-27 09:28:00,64.3,57.7,29.94,East,93,2.0,3.0,79,0.00,,BKN021,0.00,VWS V14.01,2013-02-27 14:28:00,
2013-02-27 09:33:00,64.6,58.3,29.95,NNE,21,0.0,3.0,80,0.00,,BKN021,0.00,VWS V14.01,2013-02-27 14:33:00,
2013-02-27 09:38:00,65.0,58.0,29.95,NE,40,1.0,1.0,78,0.00,,BKN021,0.00,VWS V14.01,2013-02-27 14:38:00,
2013-02-27 09:43:00,65.1,58.1,29.95,West,262,2.0,3.0,78,0.00,,BKN021,0.00,VWS V14.01,2013-02-27 14:43:00,
2013-02-27 09:49:00,65.0,58.0,29.95,West,264,0.0,3.0,78,0.00,,BKN021,0.00,VWS V14.01,2013-02-27 14:49:00,
2013-02-27 09:54:00,65.3,57.9,29.95,West,276,0.0,3.0,77,0.00,,BKN021,0.00,VWS V14.01,2013-02-27 14:54:00,
2013-02-27 09:59:00,65.8,58.4,29.95,SSE,148,0.0,3.0,77,0.00,,BKN021,0.00,VWS V14.01,2013-02-27 14:59:00,
2013-02-27 10:04:00,65.8,57.7,29.95,SSE,160,0.0,3.0,75,0.00,,BKN022,0.00,VWS V14.01,2013-02-27 15:04:00,
2013-02-27 10:09:00,65.9,58.1,29.95,WNW,297,1.0,2.0,76,0.00,,BKN022,0.00,VWS V14.01,2013-02-27 15:09:00,
2013-02-27 10:14:00,66.0,57.9,29.95,ENE,63,0.0,3.0,75,0.00,,BKN022,0.00,VWS V14.01,2013-02-27 15:14:00,
2013-02-27 10:19:00,65.8,58.0,29.95,SE,134,0.0,3.0,76,0.00,,BKN022,0.00,VWS V14.01,2013-02-27 15:19:00,
2013-02-27 10:24:00,66.4,57.9,29.95,SW,222,0.0,3.0,74,0.00,,BKN022,0.00,VWS V14.01,2013-02-27 15:24:00,
2013-02-27 10:29:00,66.7,58.2,29.96,West,274,2.0,3.0,74,0.00,,BKN022,0.00,VWS V14.01,2013-02-27 15:29:00,
2013-02-27 10:34:00,66.5,58.0,29.96,ENE,78,1.0,1.0,74,0.00,,FEW022,0.00,VWS V14.01,2013-02-27 15:34:00,
2013-02-27 10:39:00,66.6,58.4,29.96,West,281,0.0,3.0,75,0.00,,FEW022,0.00,VWS V14.01,2013-02-27 15:39:00,
2013-02-27 10:44:00,66.7,57.4,29.96,ESE,102,0.0,3.0,72,0.00,,FEW022,0.00,VWS V14.01,2013-02-27 15:44:00,
2013-02-27 10:49:00,66.7,58.5,29.95,NNE,23,0.0,3.0,75,0.00,,BKN024,0.00,VWS V14.01,2013-02-27 15:49:00,
2013-02-27 10:55:00,67.2,58.3,29.95,ENE,57,0.0,3.0,73,0.00,,BKN024,0.00,VWS V14.01,2013-02-27 15:55:00,
2013-02-27 11:00:00,67.7,58.7,29.96,NNW,348,0.0,3.0,73,0.00,,BKN024,0.00,VWS V14.01,2013-02-27 16:00:00,
2013-02-27 11:05:00,68.1,58.3,29.95,West,278,0.0,2.0,71,0.00,,BKN026,0.00,VWS V14.01,2013-02-27 16:05:00,
2013-02-27 11:10:00,68.5,58.3,29.96,ENE,71,1.0,2.0,70,0.00,,BKN026,0.00,VWS V14.01,2013-02-27 16:10:00,
2013-02-27 11:15:00,68.6,58.4,29.95,East,88,0.0,3.0,70,0.00,,BKN026,0.00,VWS V14.01,2013-02-27 16:15:00,
2013-02-27 11:20:00,68.8,58.6,29.95,ENE,68,1.0,3.0,70,0.00,,BKN026,0.00,VWS V14.01,2013-02-27 16:20:00,
2013-02-27 11:25:00,69.1,58.5,29.95,ESE,105,0.0,3.0,69,0.00,,BKN026,0.00,VWS V14.01,2013-02-27 16:25:00,
2013-02-27 11:30:00,68.9,57.9,29.95,NW,307,1.0,3.0,68,0.00,,BKN026,0.00,VWS V14.01,2013-02-27 16:30:00,
2013-02-27 11:36:00,68.8,58.2,29.95,North,349,1.0,1.0,69,0.00,,FEW026,0.00,VWS V14.01,2013-02-27 16:36:00,
2013-02-27 11:41:00,69.2,57.8,29.94,West,266,0.0,6.0,67,0.00,,FEW026,0.00,VWS V14.01,2013-02-27 16:41:00,
2013-02-27 11:46:00,69.6,58.2,29.94,West,274,0.0,6.0,67,0.00,,FEW026,0.00,VWS V14.01,2013-02-27 16:46:00,
2013-02-27 11:51:00,70.3,58.4,29.94,ESE,122,2.0,6.0,66,0.00,,FEW026,0.00,VWS V14.01,2013-02-27 16:51:00,
2013-02-27 11:56:00,70.2,57.9,29.93,SW,214,0.0,6.0,65,0.00,,FEW026,0.00,VWS V14.01,2013-02-27 16:56:00,
2013-02-27 12:01:00,70.6,58.7,29.94,ESE,102,2.0,6.0,66,0.00,,FEW026,0.00,VWS V14.01,2013-02-27 17:01:00,
2013-02-27 12:06:00,71.4,59.0,29.93,ENE,57,1.0,2.0,65,0.00,,FEW026,0.00,VWS V14.01,2013-02-27 17:06:00,
2013-02-27 12:11:00,71.5,59.6,29.93,NNE,23,0.0,3.0,66,0.00,,FEW026,0.00,VWS V14.01,2013-02-27 17:11:00,
2013-02-27 12:16:00,71.2,58.0,29.93,SE,125,0.0,3.0,63,0.00,,CLR,0.00,VWS V14.01,2013-02-27 17:16:00,
2013-02-27 12:22:00,71.3,57.6,29.93,ESE,103,3.0,3.0,62,0.00,,CLR,0.00,VWS V14.01,2013-02-27 17:22:00,
2013-02-27 12:27:00,71.8,58.1,29.93,ESE,103,0.0,5.0,62,0.00,,CLR,0.00,VWS V14.01,2013-02-27 17:27:00,
2013-02-27 12:32:00,72.2,58.0,29.93,East,94,0.0,5.0,61,0.00,,CLR,0.00,VWS V14.01,2013-02-27 17:32:00,
2013-02-27 12:37:00,72.8,58.6,29.93,WNW,291,0.0,1.0,61,0.00,,CLR,0.00,VWS V14.01,2013-02-27 17:37:00,
2013-02-27 12:42:00,72.8,57.2,29.93,East,98,1.0,4.0,58,0.00,,CLR,0.00,VWS V14.01,2013-02-27 17:42:00,
2013-02-27 12:47:00,72.7,56.6,29.92,NNE,32,0.0,4.0,57,0.00,,CLR,0.00,VWS V14.01,2013-02-27 17:47:00,
2013-02-27 12:52:00,72.7,57.1,29.92,West,269,1.0,5.0,58,0.00,,CLR,0.00,VWS V14.01,2013-02-27 17:52:00,
2013-02-27 12:57:00,72.6,57.5,29.92,ENE,78,1.0,6.0,59,0.00,,CLR,0.00,VWS V14.01,2013-02-27 17:57:00,
2013-02-27 13:02:00,73.0,57.4,29.92,SE,142,2.0,6.0,58,0.00,,CLR,0.00,VWS V14.01,2013-02-27 18:02:00,
2013-02-27 13:08:00,73.5,57.3,29.92,NE,46,0.0,3.0,57,0.00,,CLR,0.00,VWS V14.01,2013-02-27 18:08:00,
2013-02-27 13:13:00,74.0,57.3,29.92,WNW,284,0.0,3.0,56,0.00,,CLR,0.00,VWS V14.01,2013-02-27 18:13:00,
2013-02-27 13:18:00,73.8,56.1,29.91,WNW,288,0.0,5.0,54,0.00,,CLR,0.00,VWS V14.01,2013-02-27 18:18:00,
2013-02-27 13:23:00,73.5,55.9,29.91,WNW,291,0.0,5.0,54,0.00,,CLR,0.00,VWS V14.01,2013-02-27 18:23:00,
2013-02-27 13:28:00,73.8,56.1,29.91,West,269,2.0,5.0,54,0.00,,CLR,0.00,VWS V14.01,2013-02-27 18:28:00,
2013-02-27 13:33:00,73.5,56.9,29.91,ESE,111,1.0,5.0,56,0.00,,CLR,0.00,VWS V14.01,2013-02-27 18:33:00,
2013-02-27 13:38:00,73.6,57.0,29.91,WNW,297,2.0,4.0,56,0.00,,CLR,0.00,VWS V14.01,2013-02-27 18:38:00,
2013-02-27 13:43:00,73.7,57.0,29.91,East,81,1.0,4.0,56,0.00,,CLR,0.00,VWS V14.01,2013-02-27 18:43:00,
2013-02-27 13:49:00,74.6,56.9,29.90,SSW,205,0.0,4.0,54,0.00,,CLR,0.00,VWS V14.01,2013-02-27 18:49:00,
2013-02-27 13:54:00,74.5,56.8,29.90,South,174,0.0,4.0,54,0.00,,CLR,0.00,VWS V14.01,2013-02-27 18:54:00,
2013-02-27 13:59:00,74.7,55.9,29.90,West,271,2.0,4.0,52,0.00,,CLR,0.00,VWS V14.01,2013-02-27 18:59:00,
2013-02-27 14:04:00,74.8,56.0,29.89,SW,221,1.0,4.0,52,0.00,,CLR,0.00,VWS V14.01,2013-02-27 19:04:00,
2013-02-27 14:09:00,74.7,57.0,29.89,WSW,238,0.0,3.0,54,0.00,,CLR,0.00,VWS V14.01,2013-02-27 19:09:00,
2013-02-27 14:14:00,74.7,56.5,29.89,SE,125,3.0,5.0,53,0.00,,CLR,0.00,VWS V14.01,2013-02-27 19:14:00,
2013-02-27 14:19:00,75.3,57.5,29.88,West,270,1.0,5.0,54,0.00,,CLR,0.00,VWS V14.01,2013-02-27 19:19:00,
2013-02-27 14:24:00,75.1,56.3,29.88,WNW,284,0.0,5.0,52,0.00,,CLR,0.00,VWS V14.01,2013-02-27 19:24:00,
2013-02-27 14:29:00,75.2,57.9,29.88,SW,231,0.0,5.0,55,0.00,,CLR,0.00,VWS V14.01,2013-02-27 19:29:00,
2013-02-27 14:35:00,75.5,56.7,29.88,SE,129,0.0,1.0,52,0.00,,CLR,0.00,VWS V14.01,2013-02-27 19:35:00,
2013-02-27 14:40:00,75.6,56.8,29.87,NW,314,0.0,3.0,52,0.00,,CLR,0.00,VWS V14.01,2013-02-27 19:40:00,
2013-02-27 14:45:00,75.8,56.9,29.87,West,267,1.0,4.0,52,0.00,,CLR,0.00,VWS V14.01,2013-02-27 19:45:00,
2013-02-27 14:50:00,75.8,56.9,29.87,South,186,2.0,4.0,52,0.00,,CLR,0.00,VWS V14.01,2013-02-27 19:50:00,
2013-02-27 14:55:00,75.7,56.3,29.87,WNW,285,0.0,4.0,51,0.00,,CLR,0.00,VWS V14.01,2013-02-27 19:55:00,
2013-02-27 15:00:00,76.1,57.8,29.88,West,276,3.0,4.0,53,0.00,,CLR,0.00,VWS V14.01,2013-02-27 20:00:00,
2013-02-27 15:06:00,75.8,57.5,29.87,WNW,288,0.0,1.0,53,0.00,,CLR,0.00,VWS V14.01,2013-02-27 20:06:00,
2013-02-27 15:11:00,75.9,57.0,29.87,WNW,293,1.0,3.0,52,0.00,,CLR,0.00,VWS V14.01,2013-02-27 20:11:00,
2013-02-27 15:16:00,75.9,56.0,29.87,WNW,283,0.0,4.0,50,0.00,,CLR,0.00,VWS V14.01,2013-02-27 20:16:00,
2013-02-27 15:21:00,76.0,57.1,29.87,NNW,328,1.0,4.0,52,0.00,,CLR,0.00,VWS V14.01,2013-02-27 20:21:00,
2013-02-27 15:26:00,75.9,56.0,29.87,SE,133,2.0,5.0,50,0.00,,CLR,0.00,VWS V14.01,2013-02-27 20:26:00,
2013-02-27 15:31:00,76.1,56.7,29.87,ESE,118,0.0,5.0,51,0.00,,CLR,0.00,VWS V14.01,2013-02-27 20:31:00,
2013-02-27 15:37:00,76.4,56.4,29.87,West,264,0.0,3.0,50,0.00,,CLR,0.00,VWS V14.01,2013-02-27 20:37:00,
2013-02-27 15:42:00,76.5,56.5,29.87,ESE,122,0.0,3.0,50,0.00,,CLR,0.00,VWS V14.01,2013-02-27 20:42:00,
2013-02-27 15:47:00,76.4,55.8,29.87,SSE,158,0.0,4.0,49,0.00,,CLR,0.00,VWS V14.01,2013-02-27 20:47:00,
2013-02-27 15:52:00,75.5,56.1,29.87,West,271,4.0,4.0,51,0.00,,CLR,0.00,VWS V14.01,2013-02-27 20:52:00,
2013-02-27 15:57:00,74.8,55.5,29.87,WNW,284,0.0,4.0,51,0.00,,CLR,0.00,VWS V14.01,2013-02-27 20:57:00,
2013-02-27 16:02:00,74.7,55.9,29.87,WNW,300,0.0,4.0,52,0.00,,CLR,0.00,VWS V14.01,2013-02-27 21:02:00,
2013-02-27 16:07:00,75.0,57.2,29.87,ENE,71,1.0,1.0,54,0.00,,CLR,0.00,VWS V14.01,2013-02-27 21:07:00,
2013-02-27 16:12:00,74.9,56.6,29.87,ESE,120,0.0,2.0,53,0.00,,CLR,0.00,VWS V14.01,2013-02-27 21:12:00,
2013-02-27 16:18:00,74.7,57.0,29.87,WNW,297,1.0,4.0,54,0.00,,CLR,0.00,VWS V14.01,2013-02-27 21:18:00,
2013-02-27 16:23:00,74.7,56.5,29.87,West,274,0.0,4.0,53,0.00,,CLR,0.00,VWS V14.01,2013-02-27 21:23:00,
2013-02-27 16:28:00,75.0,56.7,29.87,WSW,257,2.0,4.0,53,0.00,,CLR,0.00,VWS V14.01,2013-02-27 21:28:00,
2013-02-27 16:33:00,75.2,56.9,29.87,ENE,64,0.0,4.0,53,0.00,,CLR,0.00,VWS V14.01,2013-02-27 21:33:00,
2013-02-27 16:38:00,75.5,56.7,29.87,ESE,104,1.0,2.0,52,0.00,,CLR,0.00,VWS V14.01,2013-02-27 21:38:00,
2013-02-27 16:43:00,75.9,57.0,29.87,East,90,0.0,2.0,52,0.00,,CLR,0.00,VWS V14.01,2013-02-27 21:43:00,
2013-02-27 16:48:00,75.8,56.9,29.86,ENE,58,2.0,4.0,52,0.00,,CLR,0.00,VWS V14.01,2013-02-27 21:48:00,
2013-02-27 16:53:00,75.8,56.9,29.87,NE,40,0.0,4.0,52,0.00,,CLR,0.00,VWS V14.01,2013-02-27 21:53:00,
2013-02-27 16:59:00,76.0,56.6,29.87,West,280,0.0,4.0,51,0.00,,CLR,0.00,VWS V14.01,2013-02-27 21:59:00,
2013-02-27 17:04:00,76.1,57.2,29.87,West,280,0.0,4.0,52,0.00,,FEW120,0.00,VWS V14.01,2013-02-27 22:04:00,
2013-02-27 17:09:00,75.9,57.0,29.87,WNW,283,0.0,1.0,52,0.00,,FEW120,0.00,VWS V14.01,2013-02-27 22:09:00,
2013-02-27 17:14:00,75.3,57.0,29.87,WNW,283,1.0,3.0,53,0.00,,FEW120,0.00,VWS V14.01,2013-02-27 22:14:00,
2013-02-27 17:19:00,74.6,57.4,29.87,NNE,33,0.0,3.0,55,0.00,,FEW120,0.00,VWS V14.01,2013-02-27 22:19:00,
2013-02-27 17:24:00,74.4,57.2,29.87,West,273,1.0,3.0,55,0.00,,FEW120,0.00,VWS V14.01,2013-02-27 22:24:00,
2013-02-27 17:29:00,74.6,56.9,29.87,West,278,0.0,3.0,54,0.00,,FEW120,0.00,VWS V14.01,2013-02-27 22:29:00,
2013-02-27 17:34:00,74.8,57.1,29.87,East,91,0.0,0.0,54,0.00,,FEW120,0.00,VWS V14.01,2013-02-27 22:34:00,
2013-02-27 17:40:00,75.0,57.8,29.87,East,91,0.0,0.0,55,0.00,,FEW120,0.00,VWS V14.01,2013-02-27 22:40:00,
2013-02-27 17:45:00,74.8,57.6,29.88,NE,51,0.0,2.0,55,0.00,,FEW120,0.00,VWS V14.01,2013-02-27 22:45:00,
2013-02-27 17:50:00,74.0,56.8,29.88,ENE,74,0.0,2.0,55,0.00,,FEW120,0.00,VWS V14.01,2013-02-27 22:50:00,
2013-02-27 17:55:00,73.2,56.6,29.88,East,93,0.0,2.0,56,0.00,,FEW120,0.00,VWS V14.01,2013-02-27 22:55:00,
2013-02-27 18:00:00,72.8,56.7,29.89,ENE,78,0.0,2.0,57,0.00,,FEW120,0.00,VWS V14.01,2013-02-27 23:00:00,
2013-02-27 18:05:00,72.4,56.8,29.88,East,79,0.0,0.0,58,0.00,,CLR,0.00,VWS V14.01,2013-02-27 23:05:00,
2013-02-27 18:10:00,71.9,56.8,29.88,East,79,0.0,0.0,59,0.00,,CLR,0.00,VWS V14.01,2013-02-27 23:10:00,
2013-02-27 18:15:00,71.3,56.7,29.88,East,79,0.0,0.0,60,0.00,,CLR,0.00,VWS V14.01,2013-02-27 23:15:00,
2013-02-27 18:20:00,70.7,57.1,29.88,East,79,0.0,0.0,62,0.00,,CLR,0.00,VWS V14.01,2013-02-27 23:20:00,
2013-02-27 18:25:00,69.8,56.2,29.88,East,79,0.0,0.0,62,0.00,,CLR,0.00,VWS V14.01,2013-02-27 23:25:00,
2013-02-27 18:30:00,69.0,56.8,29.88,East,79,0.0,0.0,65,0.00,,CLR,0.00,VWS V14.01,2013-02-27 23:30:00,
2013-02-27 18:36:00,68.3,56.5,29.88,East,79,0.0,0.0,66,0.00,,CLR,0.00,VWS V14.01,2013-02-27 23:36:00,
2013-02-27 18:41:00,67.6,56.3,29.88,East,79,0.0,0.0,67,0.00,,CLR,0.00,VWS V14.01,2013-02-27 23:41:00,
2013-02-27 18:46:00,67.2,55.9,29.89,NE,53,0.0,1.0,67,0.00,,CLR,0.00,VWS V14.01,2013-02-27 23:46:00,
2013-02-27 18:51:00,67.4,55.7,29.89,NNW,330,0.0,1.0,66,0.00,,CLR,0.00,VWS V14.01,2013-02-27 23:51:00,
2013-02-27 18:56:00,67.8,55.2,29.89,NNE,15,0.0,1.0,64,0.00,,CLR,0.00,VWS V14.01,2013-02-27 23:56:00,
2013-02-27 19:01:00,68.2,54.7,29.89,NW,311,0.0,4.0,62,0.00,,CLR,0.00,VWS V14.01,2013-02-28 00:01:00,
2013-02-27 19:07:00,68.4,54.4,29.89,NNW,330,0.0,2.0,61,0.00,,CLR,0.00,VWS V14.01,2013-02-28 00:07:00,
2013-02-27 19:12:00,68.4,54.0,29.90,NNE,19,0.0,3.0,60,0.00,,CLR,0.00,VWS V14.01,2013-02-28 00:12:00,
2013-02-27 19:17:00,68.3,53.4,29.90,ESE,104,0.0,3.0,59,0.00,,CLR,0.00,VWS V14.01,2013-02-28 00:17:00,
2013-02-27 19:22:00,68.1,53.7,29.90,ESE,115,0.0,3.0,60,0.00,,CLR,0.00,VWS V14.01,2013-02-28 00:22:00,
2013-02-27 19:27:00,67.8,53.9,29.90,WNW,287,5.0,5.0,61,0.00,,CLR,0.00,VWS V14.01,2013-02-28 00:27:00,
2013-02-27 19:32:00,67.7,53.8,29.90,WNW,295,0.0,5.0,61,0.00,,CLR,0.00,VWS V14.01,2013-02-28 00:32:00,
2013-02-27 19:37:00,67.5,53.6,29.90,WNW,291,0.0,2.0,61,0.00,,CLR,0.00,VWS V14.01,2013-02-28 00:37:00,
2013-02-27 19:42:00,67.1,53.7,29.90,NW,324,0.0,3.0,62,0.00,,CLR,0.00,VWS V14.01,2013-02-28 00:42:00,
2013-02-27 19:47:00,66.9,53.5,29.90,East,86,2.0,3.0,62,0.00,,CLR,0.00,VWS V14.01,2013-02-28 00:47:00,
2013-02-27 19:52:00,66.9,53.9,29.90,WNW,285,0.0,4.0,63,0.00,,CLR,0.00,VWS V14.01,2013-02-28 00:52:00,
2013-02-27 19:57:00,66.6,54.1,29.90,West,276,0.0,4.0,64,0.00,,CLR,0.00,VWS V14.01,2013-02-28 00:57:00,
2013-02-27 20:02:00,66.3,53.8,29.90,West,278,0.0,4.0,64,0.00,,CLR,0.00,VWS V14.01,2013-02-28 01:02:00,
2013-02-27 20:08:00,66.0,53.9,29.90,West,277,0.0,3.0,65,0.00,,CLR,0.00,VWS V14.01,2013-02-28 01:08:00,
2013-02-27 20:13:00,65.7,54.0,29.90,ENE,65,0.0,3.0,66,0.00,,CLR,0.00,VWS V14.01,2013-02-28 01:13:00,
2013-02-27 20:18:00,65.4,54.2,29.90,ESE,115,0.0,3.0,67,0.00,,CLR,0.00,VWS V14.01,2013-02-28 01:18:00,
2013-02-27 20:23:00,65.2,54.0,29.91,WNW,290,0.0,3.0,67,0.00,,CLR,0.00,VWS V14.01,2013-02-28 01:23:00,
2013-02-27 20:28:00,64.9,54.1,29.91,WSW,252,0.0,3.0,68,0.00,,CLR,0.00,VWS V14.01,2013-02-28 01:28:00,
2013-02-27 20:33:00,64.5,53.7,29.91,North,359,0.0,3.0,68,0.00,,CLR,0.00,VWS V14.01,2013-02-28 01:33:00,
2013-02-27 20:38:00,64.3,53.9,29.92,East,82,1.0,1.0,69,0.00,,CLR,0.00,VWS V14.01,2013-02-28 01:38:00,
2013-02-27 20:43:00,64.1,52.9,29.91,NNE,26,0.0,4.0,67,0.00,,CLR,0.00,VWS V14.01,2013-02-28 01:43:00,
2013-02-27 20:48:00,63.8,52.7,29.91,WNW,302,0.0,4.0,67,0.00,,CLR,0.00,VWS V14.01,2013-02-28 01:48:00,
2013-02-27 20:54:00,63.7,52.1,29.91,NNW,347,1.0,4.0,66,0.00,,CLR,0.00,VWS V14.01,2013-02-28 01:54:00,
2013-02-27 20:59:00,63.5,52.0,29.91,East,82,0.0,5.0,66,0.00,,CLR,0.00,VWS V14.01,2013-02-28 01:59:00,
2013-02-27 21:04:00,63.4,51.9,29.92,SSE,159,1.0,9.0,66,0.00,,CLR,0.00,VWS V14.01,2013-02-28 02:04:00,
2013-02-27 21:09:00,63.2,52.1,29.92,NW,317,2.0,6.0,67,0.00,,CLR,0.00,VWS V14.01,2013-02-28 02:09:00,
2013-02-27 21:14:00,62.9,52.2,29.92,West,281,3.0,6.0,68,0.00,,CLR,0.00,VWS V14.01,2013-02-28 02:14:00,
2013-02-27 21:19:00,62.6,51.9,29.92,WNW,283,2.0,8.0,68,0.00,,CLR,0.00,VWS V14.01,2013-02-28 02:19:00,
2013-02-27 21:24:00,62.3,52.0,29.92,West,264,0.0,8.0,69,0.00,,CLR,0.00,VWS V14.01,2013-02-28 02:24:00,
2013-02-27 21:29:00,62.0,52.1,29.93,NE,56,0.0,8.0,70,0.00,,CLR,0.00,VWS V14.01,2013-02-28 02:29:00,
2013-02-27 21:34:00,61.7,51.8,29.92,West,281,0.0,2.0,70,0.00,,CLR,0.00,VWS V14.01,2013-02-28 02:34:00,
2013-02-27 21:39:00,61.5,52.0,29.92,NNE,33,0.0,4.0,71,0.00,,CLR,0.00,VWS V14.01,2013-02-28 02:39:00,
2013-02-27 21:45:00,61.2,51.7,29.93,WSW,255,0.0,4.0,71,0.00,,CLR,0.00,VWS V14.01,2013-02-28 02:45:00,
2013-02-27 21:50:00,60.9,51.8,29.93,WNW,287,0.0,4.0,72,0.00,,CLR,0.00,VWS V14.01,2013-02-28 02:50:00,
2013-02-27 21:55:00,60.5,51.8,29.92,West,277,0.0,4.0,73,0.00,,CLR,0.00,VWS V14.01,2013-02-28 02:55:00,
2013-02-27 22:00:00,60.3,51.6,29.93,ENE,75,0.0,6.0,73,0.00,,CLR,0.00,VWS V14.01,2013-02-28 03:00:00,
2013-02-27 22:05:00,60.0,51.7,29.93,WNW,294,0.0,0.0,74,0.00,,CLR,0.00,VWS V14.01,2013-02-28 03:05:00,
2013-02-27 22:10:00,59.8,51.5,29.94,WNW,290,0.0,7.0,74,0.00,,CLR,0.00,VWS V14.01,2013-02-28 03:10:00,
2013-02-27 22:15:00,59.6,51.7,29.94,East,81,0.0,7.0,75,0.00,,CLR,0.00,VWS V14.01,2013-02-28 03:15:00,
2013-02-27 22:20:00,59.3,51.4,29.93,West,281,0.0,7.0,75,0.00,,CLR,0.00,VWS V14.01,2013-02-28 03:20:00,
2013-02-27 22:25:00,59.1,51.2,29.93,West,268,0.0,7.0,75,0.00,,CLR,0.00,VWS V14.01,2013-02-28 03:25:00,
2013-02-27 22:31:00,59.0,50.7,29.93,NW,307,1.0,7.0,74,0.00,,CLR,0.00,VWS V14.01,2013-02-28 03:31:00,
2013-02-27 22:36:00,58.8,50.9,29.93,WNW,287,1.0,3.0,75,0.00,,CLR,0.00,VWS V14.01,2013-02-28 03:36:00,
2013-02-27 22:41:00,58.6,50.7,29.94,WSW,257,0.0,3.0,75,0.00,,CLR,0.00,VWS V14.01,2013-02-28 03:41:00,
2013-02-27 22:46:00,58.4,50.5,29.94,NNE,16,1.0,10.0,75,0.00,,CLR,0.00,VWS V14.01,2013-02-28 03:46:00,
2013-02-27 22:51:00,58.3,50.4,29.94,East,79,1.0,10.0,75,0.00,,CLR,0.00,VWS V14.01,2013-02-28 03:51:00,
2013-02-27 22:56:00,58.1,50.6,29.93,East,98,0.0,10.0,76,0.00,,CLR,0.00,VWS V14.01,2013-02-28 03:56:00,
2013-02-27 23:01:00,57.9,50.7,29.93,ENE,65,0.0,10.0,77,0.00,,CLR,0.00,VWS V14.01,2013-02-28 04:01:00,
2013-02-27 23:07:00,57.7,50.5,29.93,WNW,287,1.0,4.0,77,0.00,,CLR,0.00,VWS V14.01,2013-02-28 04:07:00,
2013-02-27 23:12:00,57.6,50.8,29.94,NE,52,0.0,4.0,78,0.00,,CLR,0.00,VWS V14.01,2013-02-28 04:12:00,
2013-02-27 23:17:00,57.4,50.6,29.94,West,278,1.0,5.0,78,0.00,,CLR,0.00,VWS V14.01,2013-02-28 04:17:00,
2013-02-27 23:22:00,57.3,50.8,29.94,WNW,283,3.0,5.0,79,0.00,,CLR,0.00,VWS V14.01,2013-02-28 04:22:00,
2013-02-27 23:27:00,57.1,50.7,29.94,WSW,257,0.0,5.0,79,0.00,,CLR,0.00,VWS V14.01,2013-02-28 04:27:00,
2013-02-27 23:32:00,56.9,50.5,29.94,West,260,0.0,5.0,79,0.00,,CLR,0.00,VWS V14.01,2013-02-28 04:32:00,
2013-02-27 23:37:00,56.8,50.7,29.94,West,270,0.0,2.0,80,0.00,,CLR,0.00,VWS V14.01,2013-02-28 04:37:00,
2013-02-27 23:42:00,56.6,50.5,29.94,WNW,284,0.0,2.0,80,0.00,,CLR,0.00,VWS V14.01,2013-02-28 04:42:00,
2013-02-27 23:48:00,56.6,50.5,29.94,ESE,115,1.0,5.0,80,0.00,,CLR,0.00,VWS V14.01,2013-02-28 04:48:00,
2013-02-27 23:53:00,56.7,50.3,29.94,WNW,287,1.0,6.0,79,0.00,,CLR,0.00,VWS V14.01,2013-02-28 04:53:00,
2013-02-27 23:58:00,56.8,50.4,29.93,WNW,288,0.0,6.0,79,0.00,,CLR,0.00,VWS V14.01,2013-02-28 04:58:00,